Content
SEND FEEDBACK

Daily
Averages
Monthly
Summary
United States of America

FAIRPORT, CALIFORNIA


Home > North America > United States > California
Elevation: 4880 feet     Latitude: 42 00N     Longitude: 120 18W

WEATHER
 
SELECT A DAY
Number of Records: 440,276;   Date Range: 1/1/95 - 8/12/14
 
SHARE

PRINT THIS DATA

[ ← Previous Day ]
WEATHER ALMANAC - JANUARY 23, 2013
[ Next Day → ]
[ °C ]   °F
Weather ElementAverageHighLow
Temperature32.5 °F42.8 °F (10:35 am)15.8 °F (12:55 am)
Dewpoint-13.4 °F-5.8 °F (10:55 am)-25.6 °F (12:35 am)
Humidity13.4 %15 % (3:55 am)12 % (8:35 am)
Barometer30.04 in30.12 in (10:15 pm)29.99 in (1:15 pm)
Wind Speed8.6 mph19.6 mph (10:35 am)
Wind Gust26.5 mph (10:35 am)
Weather ElementAverage
Visibility10 mi
Wind DirectionSSE (164.1 °)

Weather ElementTotal
Precipitation---
Heating Degree Days35.7 (Base 65)
Averaged from 71 records on January 23, 2013
WEATHER CONDITIONS BREAKOUT
WIND DIRECTION BREAKOUT
WEATHER BY HOUR - JANUARY 23, 2013
[ °C ]   °F
Local TimeTemperatureDewpointHumidityBarometerVisibilityWind DirectionWind SpeedGust SpeedPrecipitationEventsConditions
12:35 AM17.6 °F-25.6 °F13 %30.10 in10.0 miWest (280°)6.9 mphClear
12:55 AM15.8 °F-25.6 °F14 %30.09 in10.0 miENE (60°)3.5 mphClear
1:15 AM15.8 °F-25.6 °F14 %30.09 in10.0 miCalmClear
1:35 AM15.8 °F-25.6 °F14 %30.09 in10.0 miCalmClear
1:55 AM15.8 °F-25.6 °F14 %30.09 in10.0 miCalmClear
2:15 AM15.8 °F-25.6 °F14 %30.08 in10.0 miNorth (360°)3.5 mphClear
2:35 AM15.8 °F-25.6 °F14 %30.08 in10.0 miCalmClear
2:55 AM15.8 °F-25.6 °F14 %30.08 in10.0 miCalmClear
3:15 AM15.8 °F-25.6 °F14 %30.07 in10.0 miNNE (20°)6.9 mphClear
3:35 AM17.6 °F-25.6 °F13 %30.06 in10.0 miNNE (20°)5.8 mphClear
3:55 AM17.6 °F-23.8 °F15 %30.05 in10.0 miNNE (20°)3.5 mphClear
4:15 AM17.6 °F-23.8 °F15 %30.05 in10.0 miNW (320°)3.5 mphClear
4:35 AM19.4 °F-23.8 °F14 %30.04 in10.0 miNNW (340°)3.5 mphClear
4:55 AM21.2 °F-22.0 °F14 %30.04 in10.0 miNW (320°)4.6 mphPartly Cloudy
5:15 AM23.0 °F-20.2 °F14 %30.04 in10.0 miCalmMostly Cloudy
5:35 AM24.8 °F-20.2 °F13 %30.05 in10.0 miESE (110°)3.5 mphOvercast
5:55 AM26.6 °F-18.4 °F13 %30.03 in10.0 miESE (120°)5.8 mphOvercast
6:15 AM28.4 °F-16.6 °F13 %30.03 in10.0 miSE (140°)6.9 mphOvercast
6:35 AM30.2 °F-14.8 °F14 %30.04 in10.0 miSSE (160°)3.5 mphOvercast
6:55 AM28.4 °F-16.6 °F13 %30.03 in10.0 miNNW (340°)3.5 mphOvercast
7:15 AM28.4 °F-16.6 °F13 %30.03 in10.0 miNW (320°)3.5 mphOvercast
7:35 AM28.4 °F-16.6 °F13 %30.02 in10.0 miCalmOvercast
7:55 AM28.4 °F-16.6 °F13 %30.01 in10.0 miCalmOvercast
8:15 AM30.2 °F-16.6 °F13 %30.01 in10.0 miSSW (200°)8.1 mphOvercast
8:35 AM37.4 °F-11.2 °F12 %30.01 in10.0 miSW (220°)13.8 mphPartly Cloudy
8:55 AM39.2 °F-9.4 °F12 %30.03 in10.0 miSW (220°)12.7 mphScattered Clouds
9:15 AM39.2 °F-7.6 °F14 %30.02 in10.0 miSouth (190°)11.5 mphOvercast
9:35 AM39.2 °F-7.6 °F14 %30.02 in10.0 miSouth (180°)12.7 mphOvercast
9:55 AM39.2 °F-7.6 °F14 %30.04 in10.0 miSSW (210°)12.7 mphScattered Clouds
10:15 AM39.2 °F-7.6 °F14 %30.03 in10.0 miSouth (190°)8.1 mphMostly Cloudy
10:35 AM42.8 °F-7.6 °F12 %30.02 in10.0 miSouth (180°)19.6 mph26.5 mphOvercast
10:55 AM42.8 °F-5.8 °F13 %30.02 in10.0 miSouth (190°)17.3 mph21.9 mphMostly Cloudy
11:15 AM41.0 °F-7.6 °F13 %30.01 in10.0 miSouth (180°)19.6 mph24.2 mphOvercast
11:35 AM39.2 °F-7.6 °F14 %30.02 in10.0 miSouth (190°)15.0 mphOvercast
11:55 AM39.2 °F-9.4 °F12 %30.01 in10.0 miSouth (180°)16.1 mphOvercast
12:15 PM39.2 °F-7.6 °F14 %30.00 in10.0 miSouth (180°)16.1 mphMostly Cloudy
12:35 PM39.2 °F-7.6 °F14 %30.01 in10.0 miSouth (180°)15.0 mphOvercast
12:55 PM39.2 °F-7.6 °F14 %30.00 in10.0 miSouth (180°)12.7 mphMostly Cloudy
1:15 PM39.2 °F-7.6 °F14 %29.99 in10.0 miSouth (180°)15.0 mphPartly Cloudy
1:35 PM39.2 °F-7.6 °F14 %30.00 in10.0 miSouth (190°)13.8 mphClear
1:55 PM39.2 °F-7.6 °F14 %29.99 in10.0 miSSW (200°)12.7 mphClear
2:15 PM39.2 °F-9.4 °F12 %30.00 in10.0 miSouth (190°)15.0 mphClear
2:35 PM39.2 °F-9.4 °F12 %29.99 in10.0 miSouth (190°)12.7 mphClear
2:55 PM37.4 °F-9.4 °F13 %29.99 in10.0 miSouth (190°)12.7 mphClear
3:15 PM39.2 °F-9.4 °F12 %29.99 in10.0 miSouth (180°)15.0 mphClear
3:35 PM41.0 °F-7.6 °F13 %29.99 in10.0 miSouth (170°)15.0 mphClear
3:55 PM41.0 °F-7.6 °F13 %29.99 in10.0 miSouth (170°)12.7 mphPartly Cloudy
4:15 PM39.2 °F-7.6 °F14 %30.00 in10.0 miSouth (190°)12.7 mphMostly Cloudy
4:35 PM37.4 °F-9.4 °F13 %29.99 in10.0 miSouth (190°)11.5 mphOvercast
4:55 PM37.4 °F-9.4 °F13 %30.00 in10.0 miSSW (200°)12.7 mphOvercast
5:15 PM39.2 °F-7.6 °F14 %30.00 in10.0 miSSW (200°)13.8 mphOvercast
5:35 PM39.2 °F-7.6 °F14 %30.02 in10.0 miSW (220°)10.4 mphOvercast
5:55 PM37.4 °F-9.4 °F13 %30.02 in10.0 miSouth (180°)10.4 mphOvercast
6:15 PM37.4 °F-9.4 °F13 %30.02 in10.0 miSouth (190°)10.4 mphOvercast
6:35 PM37.4 °F-9.4 °F13 %30.03 in10.0 miSouth (170°)11.5 mphOvercast
6:55 PM37.4 °F-9.4 °F13 %30.04 in10.0 miSouth (170°)11.5 mphOvercast
7:15 PM37.4 °F-9.4 °F13 %30.05 in10.0 miSSW (200°)10.4 mphOvercast
7:35 PM37.4 °F-9.4 °F13 %30.07 in10.0 miSouth (170°)8.1 mphOvercast
7:55 PM37.4 °F-9.4 °F13 %30.08 in10.0 miSouth (190°)9.2 mphOvercast
8:15 PM35.6 °F-9.4 °F14 %30.08 in10.0 miSouth (170°)5.8 mphOvercast
8:35 PM35.6 °F-11.2 °F13 %30.09 in10.0 miSSE (150°)6.9 mphOvercast
8:55 PM35.6 °F-11.2 °F13 %30.09 in10.0 miSSE (160°)8.1 mphOvercast
9:15 PM33.8 °F-11.2 °F14 %30.10 in10.0 miSE (130°)6.9 mphOvercast
9:35 PM35.6 °F-11.2 °F13 %30.10 in10.0 miSE (130°)8.1 mphOvercast
9:55 PM35.6 °F-11.2 °F13 %30.11 in10.0 miSouth (180°)4.6 mphOvercast
10:15 PM35.6 °F-11.2 °F13 %30.12 in10.0 miSouth (170°)4.6 mphOvercast
10:35 PM35.6 °F-11.2 °F13 %30.11 in10.0 miCalmOvercast
10:55 PM35.6 °F-11.2 °F13 %30.12 in10.0 miSW (220°)5.8 mphOvercast
11:15 PM35.6 °F-11.2 °F13 %30.11 in10.0 miSSW (200°)6.9 mphOvercast
11:35 PM35.6 °F-11.2 °F13 %30.12 in10.0 miSSW (210°)5.8 mphOvercast
11:55 PM35.6 °F-11.2 °F13 %30.12 in10.0 miSSW (200°)9.2 mphOvercast
Hourly data recorded from KLKV, located miles away from Fairport, California







STORIES FROM OUR PARTNERS